Time,TemperatureF,DewpointF,PressureIn,WindDirection,WindDirectionDegrees,WindSpeedMPH,WindSpeedGustMPH,Humidity,HourlyPrecipIn,Conditions,Clouds,dailyrainin,SoftwareType,DateUTC
2013-05-28 00:03:00,58.0,57.0,29.92,SE,126,3.0,6.0,97,0.00,,,0.82,,2013-05-28 04:03:00,
2013-05-28 00:13:00,58.0,57.0,29.92,SE,126,3.0,6.0,97,0.00,,,0.82,,2013-05-28 04:13:00,
2013-05-28 00:22:00,58.0,57.0,29.92,ESE,111,4.0,7.0,97,0.00,,,0.82,,2013-05-28 04:22:00,
2013-05-28 00:33:00,58.0,57.0,29.92,ESE,111,3.0,5.0,97,0.00,,,0.82,,2013-05-28 04:33:00,
2013-05-28 00:43:00,58.0,57.0,29.92,ESE,111,3.0,5.0,97,0.00,,,0.82,,2013-05-28 04:43:00,
2013-05-28 00:53:00,58.0,57.0,29.92,SE,134,4.0,6.0,97,0.00,,,0.82,,2013-05-28 04:53:00,
2013-05-28 01:02:00,59.0,58.0,29.91,ESE,123,3.0,5.0,97,0.00,,,0.82,,2013-05-28 05:02:00,
2013-05-28 01:12:00,59.0,58.0,29.91,ESE,123,3.0,5.0,97,0.00,,,0.82,,2013-05-28 05:12:00,
2013-05-28 01:22:00,59.0,58.0,29.91,ESE,123,2.0,5.0,97,0.00,,,0.82,,2013-05-28 05:22:00,
2013-05-28 01:33:00,59.0,58.0,29.91,SE,125,1.0,4.0,97,0.00,,,0.82,,2013-05-28 05:33:00,
2013-05-28 01:42:00,59.0,58.0,29.91,SE,125,1.0,4.0,97,0.00,,,0.82,,2013-05-28 05:42:00,
2013-05-28 01:52:00,59.0,58.0,29.91,SE,130,3.0,4.0,98,0.00,,,0.82,,2013-05-28 05:52:00,
2013-05-28 02:02:00,59.0,58.0,29.91,ESE,113,2.0,4.0,98,0.00,,,0.82,,2013-05-28 06:02:00,
2013-05-28 02:12:00,59.0,58.0,29.91,ESE,113,2.0,4.0,98,0.00,,,0.82,,2013-05-28 06:12:00,
2013-05-28 02:22:00,60.0,59.0,29.92,SE,140,1.0,3.0,98,0.00,,,0.82,,2013-05-28 06:22:00,
2013-05-28 02:32:00,60.0,59.0,29.93,South,171,2.0,5.0,98,0.01,,,0.83,,2013-05-28 06:32:00,
2013-05-28 02:42:00,60.0,59.0,29.93,South,171,2.0,5.0,98,0.01,,,0.83,,2013-05-28 06:42:00,
2013-05-28 02:52:00,61.0,60.0,29.92,South,174,1.0,3.0,98,0.01,,,0.83,,2013-05-28 06:52:00,
2013-05-28 03:01:00,61.0,60.0,29.92,South,176,1.0,5.0,98,0.01,,,0.83,,2013-05-28 07:01:00,
2013-05-28 03:11:00,61.0,60.0,29.92,South,176,1.0,5.0,98,0.01,,,0.83,,2013-05-28 07:11:00,
2013-05-28 03:21:00,61.0,60.0,29.92,SSW,213,1.0,3.0,98,0.01,,,0.83,,2013-05-28 07:21:00,
2013-05-28 03:32:00,62.0,61.0,29.91,South,182,5.0,9.0,98,0.00,,,0.83,,2013-05-28 07:32:00,
2013-05-28 03:42:00,62.0,61.0,29.91,South,182,5.0,9.0,98,0.00,,,0.83,,2013-05-28 07:42:00,
2013-05-28 03:52:00,62.0,61.0,29.91,SSW,204,6.0,9.0,98,0.01,,,0.84,,2013-05-28 07:52:00,
2013-05-28 04:02:00,63.0,62.0,29.91,SW,222,6.0,13.0,97,0.02,,,0.85,,2013-05-28 08:02:00,
2013-05-28 04:12:00,63.0,62.0,29.91,SW,222,6.0,13.0,97,0.02,,,0.85,,2013-05-28 08:12:00,
2013-05-28 04:22:00,64.0,63.0,29.91,West,269,7.0,15.0,97,0.05,,,0.88,,2013-05-28 08:22:00,
2013-05-28 04:32:00,64.0,63.0,29.91,SSW,213,4.0,10.0,97,0.13,,,0.96,,2013-05-28 08:32:00,
2013-05-28 04:42:00,64.0,63.0,29.91,SSW,213,4.0,10.0,97,0.13,,,0.96,,2013-05-28 08:42:00,
2013-05-28 04:52:00,64.0,63.0,29.92,SW,234,6.0,9.0,97,0.14,,,0.98,,2013-05-28 08:52:00,
2013-05-28 05:01:00,64.0,63.0,29.91,WSW,254,3.0,10.0,97,0.19,,,1.04,,2013-05-28 09:01:00,
2013-05-28 05:11:00,64.0,63.0,29.91,WSW,254,3.0,10.0,97,0.19,,,1.04,,2013-05-28 09:11:00,
2013-05-28 05:21:00,64.0,63.0,29.91,WNW,294,0.0,3.0,97,0.17,,,1.01,,2013-05-28 09:21:00,
2013-05-28 05:33:00,64.0,63.0,29.92,WNW,294,0.0,2.0,97,0.09,,,1.01,,2013-05-28 09:33:00,
2013-05-28 05:43:00,64.0,63.0,29.92,WNW,294,0.0,2.0,97,0.09,,,1.01,,2013-05-28 09:43:00,
2013-05-28 05:54:00,64.0,63.0,29.93,South,183,1.0,3.0,97,0.07,,,1.01,,2013-05-28 09:54:00,
2013-05-28 06:03:00,64.0,63.0,29.92,SSE,165,1.0,3.0,97,0.01,,,1.01,,2013-05-28 10:03:00,
2013-05-28 06:12:00,64.0,63.0,29.92,SSE,165,1.0,3.0,97,0.01,,,1.01,,2013-05-28 10:12:00,
2013-05-28 06:23:00,63.0,62.0,29.91,SE,134,2.0,5.0,97,0.00,,,0.92,,2013-05-28 10:23:00,
2013-05-28 06:32:00,63.0,62.0,29.90,SE,146,3.0,6.0,97,0.00,,,0.92,,2013-05-28 10:32:00,
2013-05-28 06:43:00,63.0,62.0,29.90,SE,146,3.0,6.0,97,0.00,,,0.92,,2013-05-28 10:43:00,
2013-05-28 06:53:00,63.0,62.0,29.89,SE,137,4.0,5.0,97,0.00,,,0.92,,2013-05-28 10:53:00,
2013-05-28 07:02:00,63.0,62.0,29.90,SE,136,3.0,7.0,97,0.00,,,0.92,,2013-05-28 11:02:00,
2013-05-28 07:11:00,63.0,62.0,29.90,SE,136,3.0,7.0,97,0.00,,,0.92,,2013-05-28 11:11:00,
2013-05-28 07:22:00,63.0,62.0,29.91,SE,127,5.0,9.0,97,0.00,,,0.87,,2013-05-28 11:22:00,
2013-05-28 07:32:00,64.0,63.0,29.91,SE,140,5.0,10.0,97,0.00,,,0.87,,2013-05-28 11:32:00,
2013-05-28 07:42:00,64.0,63.0,29.91,SE,140,5.0,10.0,97,0.00,,,0.87,,2013-05-28 11:42:00,
2013-05-28 07:52:00,64.0,63.0,29.91,SE,143,6.0,12.0,96,0.00,,,0.87,,2013-05-28 11:52:00,
2013-05-28 08:02:00,64.0,63.0,29.91,SE,130,5.0,11.0,95,0.00,,,0.87,,2013-05-28 12:02:00,
2013-05-28 08:11:00,64.0,63.0,29.91,SE,130,5.0,11.0,95,0.00,,,0.87,,2013-05-28 12:11:00,
2013-05-28 08:21:00,64.0,63.0,29.91,SW,221,6.0,11.0,95,0.00,,,0.83,,2013-05-28 12:21:00,
2013-05-28 08:32:00,65.0,64.0,29.91,SE,126,5.0,10.0,95,0.00,,,0.83,,2013-05-28 12:32:00,
2013-05-28 08:42:00,65.0,64.0,29.91,SE,126,5.0,10.0,95,0.00,,,0.83,,2013-05-28 12:42:00,
2013-05-28 08:52:00,65.0,63.0,29.91,South,190,8.0,14.0,93,0.00,,,0.83,,2013-05-28 12:52:00,
2013-05-28 09:01:00,66.0,64.0,29.91,SE,144,5.0,14.0,92,0.00,,,0.83,,2013-05-28 13:01:00,
2013-05-28 09:11:00,66.0,64.0,29.91,SE,144,5.0,14.0,92,0.00,,,0.83,,2013-05-28 13:11:00,
2013-05-28 09:22:00,66.0,63.0,29.90,South,190,6.0,11.0,90,0.00,,,0.67,,2013-05-28 13:22:00,
2013-05-28 09:32:00,67.0,64.0,29.89,South,171,8.0,12.0,89,0.00,,,0.67,,2013-05-28 13:32:00,
2013-05-28 09:42:00,67.0,64.0,29.89,South,171,8.0,12.0,89,0.00,,,0.67,,2013-05-28 13:42:00,
2013-05-28 09:52:00,68.0,64.0,29.89,SSW,199,7.0,14.0,88,0.00,,,0.67,,2013-05-28 13:52:00,
2013-05-28 10:02:00,68.0,64.0,29.89,South,183,10.0,18.0,87,0.00,,,0.67,,2013-05-28 14:02:00,
2013-05-28 10:12:00,68.0,64.0,29.89,South,183,10.0,18.0,87,0.00,,,0.67,,2013-05-28 14:12:00,
2013-05-28 10:21:00,69.0,65.0,29.89,South,174,8.0,14.0,86,0.00,,,0.61,,2013-05-28 14:21:00,
2013-05-28 10:32:00,69.0,65.0,29.90,SSW,209,8.0,18.0,86,0.00,,,0.61,,2013-05-28 14:32:00,
2013-05-28 10:42:00,69.0,65.0,29.90,SSW,209,8.0,18.0,86,0.00,,,0.61,,2013-05-28 14:42:00,
2013-05-28 10:52:00,70.0,65.0,29.89,SSE,162,9.0,19.0,85,0.00,,,0.61,,2013-05-28 14:52:00,
2013-05-28 11:01:00,70.0,65.0,29.89,SSE,162,9.0,19.0,85,0.00,,,0.61,,2013-05-28 15:01:00,
2013-05-28 11:11:00,70.0,65.0,29.89,SSE,162,9.0,19.0,85,0.00,,,0.61,,2013-05-28 15:11:00,
2013-05-28 11:21:00,71.0,66.0,29.89,SSW,209,8.0,15.0,84,0.00,,,0.61,,2013-05-28 15:21:00,
2013-05-28 11:33:00,72.0,67.0,29.88,SSW,200,8.0,16.0,83,0.00,,,0.61,,2013-05-28 15:33:00,
2013-05-28 11:43:00,72.0,67.0,29.88,SSW,200,8.0,16.0,83,0.00,,,0.61,,2013-05-28 15:43:00,
2013-05-28 11:53:00,73.0,66.0,29.89,SSW,213,7.0,17.0,80,0.00,,,0.61,,2013-05-28 15:53:00,
2013-05-28 12:03:00,73.0,66.0,29.88,SSW,210,9.0,17.0,80,0.01,,,0.62,,2013-05-28 16:03:00,
2013-05-28 12:13:00,73.0,66.0,29.88,SSW,210,9.0,17.0,80,0.01,,,0.62,,2013-05-28 16:13:00,
2013-05-28 12:23:00,73.0,66.0,29.88,SSW,205,9.0,20.0,79,0.01,,,0.62,,2013-05-28 16:23:00,
2013-05-28 12:33:00,73.0,66.0,29.88,SSW,211,9.0,16.0,79,0.01,,,0.62,,2013-05-28 16:33:00,
2013-05-28 12:42:00,73.0,66.0,29.88,SSW,211,9.0,16.0,79,0.01,,,0.62,,2013-05-28 16:42:00,
2013-05-28 12:53:00,74.0,67.0,29.87,SSW,204,10.0,19.0,80,0.01,,,0.62,,2013-05-28 16:53:00,
2013-05-28 13:02:00,74.0,67.0,29.85,SSW,200,12.0,23.0,78,0.00,,,0.62,,2013-05-28 17:02:00,
2013-05-28 13:12:00,74.0,67.0,29.85,SSW,200,12.0,23.0,78,0.00,,,0.62,,2013-05-28 17:12:00,
2013-05-28 13:22:00,74.0,67.0,29.85,SSW,200,12.0,23.0,78,0.00,,,0.62,,2013-05-28 17:22:00,
2013-05-28 13:32:00,75.0,68.0,29.85,WSW,257,10.0,21.0,78,0.00,,,0.56,,2013-05-28 17:32:00,
2013-05-28 13:42:00,74.0,67.0,29.85,SW,235,10.0,19.0,79,0.00,,,0.56,,2013-05-28 17:42:00,
2013-05-28 13:52:00,74.0,67.0,29.85,SW,235,10.0,19.0,79,0.00,,,0.56,,2013-05-28 17:52:00,
2013-05-28 14:01:00,76.0,68.0,29.84,SSE,163,11.0,22.0,77,0.00,,,0.56,,2013-05-28 18:01:00,
2013-05-28 14:11:00,76.0,68.0,29.84,SSE,163,11.0,22.0,77,0.00,,,0.56,,2013-05-28 18:11:00,
2013-05-28 14:22:00,76.0,68.0,29.85,SSW,210,9.0,18.0,76,0.00,,,0.50,,2013-05-28 18:22:00,
2013-05-28 14:32:00,77.0,68.0,29.84,South,175,11.0,22.0,75,0.00,,,0.50,,2013-05-28 18:32:00,
2013-05-28 14:42:00,77.0,68.0,29.86,West,259,10.0,20.0,75,0.00,,,0.50,,2013-05-28 18:42:00,
2013-05-28 14:52:00,77.0,68.0,29.86,West,259,10.0,20.0,75,0.00,,,0.50,,2013-05-28 18:52:00,
2013-05-28 15:01:00,77.0,68.0,29.86,WSW,242,12.0,20.0,75,0.00,,,0.50,,2013-05-28 19:01:00,
2013-05-28 15:11:00,77.0,68.0,29.86,WSW,242,12.0,20.0,75,0.00,,,0.50,,2013-05-28 19:11:00,
2013-05-28 15:21:00,77.0,68.0,29.86,South,171,12.0,20.0,73,0.00,,,0.50,,2013-05-28 19:21:00,
2013-05-28 15:32:00,77.0,68.0,29.87,SSW,205,11.0,20.0,74,0.00,,,0.50,,2013-05-28 19:32:00,
2013-05-28 15:42:00,77.0,68.0,29.87,SSW,205,11.0,20.0,74,0.00,,,0.50,,2013-05-28 19:42:00,
2013-05-28 15:52:00,77.0,68.0,29.87,WSW,252,12.0,18.0,75,0.00,,,0.50,,2013-05-28 19:52:00,
2013-05-28 16:02:00,77.0,68.0,29.87,SSE,163,10.0,18.0,74,0.00,,,0.50,,2013-05-28 20:02:00,
2013-05-28 16:11:00,77.0,68.0,29.87,SSE,163,10.0,18.0,74,0.00,,,0.50,,2013-05-28 20:11:00,
2013-05-28 16:22:00,77.0,68.0,29.87,South,188,7.0,20.0,74,0.00,,,0.49,,2013-05-28 20:22:00,
2013-05-28 16:32:00,78.0,68.0,29.86,SSW,196,14.0,20.0,71,0.00,,,0.49,,2013-05-28 20:32:00,
2013-05-28 16:42:00,78.0,68.0,29.86,SSW,196,14.0,20.0,71,0.00,,,0.49,,2013-05-28 20:42:00,
2013-05-28 16:52:00,78.0,69.0,29.86,SSW,207,10.0,19.0,73,0.00,,,0.49,,2013-05-28 20:52:00,
2013-05-28 17:02:00,78.0,69.0,29.85,SSW,205,7.0,17.0,73,0.00,,,0.49,,2013-05-28 21:02:00,
2013-05-28 17:11:00,78.0,68.0,29.85,SSW,198,10.0,17.0,72,0.00,,,0.49,,2013-05-28 21:11:00,
2013-05-28 17:21:00,78.0,68.0,29.85,SSW,198,10.0,17.0,72,0.00,,,0.49,,2013-05-28 21:21:00,
2013-05-28 17:33:00,78.0,68.0,29.86,SW,218,10.0,17.0,71,0.00,,,0.49,,2013-05-28 21:33:00,
2013-05-28 17:43:00,78.0,68.0,29.86,South,186,11.0,24.0,72,0.00,,,0.49,,2013-05-28 21:43:00,
2013-05-28 17:53:00,78.0,68.0,29.86,South,186,11.0,24.0,72,0.00,,,0.49,,2013-05-28 21:53:00,
2013-05-28 18:02:00,78.0,68.0,29.86,South,186,9.0,20.0,72,0.00,,,0.49,,2013-05-28 22:02:00,
2013-05-28 18:13:00,79.0,68.0,29.86,SSW,213,7.0,12.0,70,0.00,,,0.49,,2013-05-28 22:13:00,
2013-05-28 18:22:00,79.0,68.0,29.86,SSW,213,7.0,12.0,70,0.00,,,0.49,,2013-05-28 22:22:00,
2013-05-28 18:33:00,79.0,68.0,29.85,WSW,241,9.0,19.0,69,0.00,,,0.49,,2013-05-28 22:33:00,
2013-05-28 18:42:00,79.0,68.0,29.85,WSW,253,11.0,19.0,69,0.00,,,0.49,,2013-05-28 22:42:00,
2013-05-28 18:52:00,79.0,68.0,29.85,WSW,253,11.0,19.0,69,0.00,,,0.49,,2013-05-28 22:52:00,
2013-05-28 19:02:00,78.0,67.0,29.85,SSW,196,9.0,17.0,70,0.00,,,0.49,,2013-05-28 23:02:00,
2013-05-28 19:11:00,78.0,68.0,29.85,SSW,207,7.0,16.0,71,0.00,,,0.49,,2013-05-28 23:11:00,
2013-05-28 19:22:00,78.0,68.0,29.85,SSW,207,7.0,16.0,71,0.00,,,0.49,,2013-05-28 23:22:00,
2013-05-28 19:32:00,78.0,68.0,29.85,SSW,210,7.0,16.0,72,0.00,,,0.49,,2013-05-28 23:32:00,
2013-05-28 19:42:00,78.0,68.0,29.85,SSW,210,7.0,16.0,72,0.00,,,0.49,,2013-05-28 23:42:00,
2013-05-28 19:52:00,78.0,68.0,29.85,SSW,200,10.0,19.0,71,0.00,,,0.49,,2013-05-28 23:52:00,
2013-05-28 20:02:00,78.0,68.0,29.85,SSW,213,8.0,20.0,71,0.00,,,0.49,,2013-05-29 00:02:00,
2013-05-28 20:11:00,78.0,68.0,29.85,SSW,213,8.0,20.0,71,0.00,,,0.49,,2013-05-29 00:11:00,
2013-05-28 20:22:00,78.0,68.0,29.85,SSW,201,9.0,16.0,71,0.00,,,0.49,,2013-05-29 00:22:00,
2013-05-28 20:32:00,77.0,67.0,29.84,South,188,8.0,13.0,72,0.00,,,0.49,,2013-05-29 00:32:00,
2013-05-28 20:42:00,77.0,67.0,29.84,South,188,8.0,13.0,72,0.00,,,0.49,,2013-05-29 00:42:00,
2013-05-28 20:52:00,77.0,68.0,29.84,SSW,198,8.0,15.0,74,0.00,,,0.49,,2013-05-29 00:52:00,
2013-05-28 21:01:00,77.0,68.0,29.83,South,171,5.0,10.0,75,0.00,,,0.49,,2013-05-29 01:01:00,
2013-05-28 21:11:00,77.0,68.0,29.83,South,171,5.0,10.0,75,0.00,,,0.49,,2013-05-29 01:11:00,
2013-05-28 21:22:00,76.0,68.0,29.83,SSW,196,7.0,13.0,76,0.00,,,0.42,,2013-05-29 01:22:00,
2013-05-28 21:32:00,76.0,68.0,29.84,SSW,201,6.0,12.0,77,0.00,,,0.42,,2013-05-29 01:32:00,
2013-05-28 21:42:00,76.0,68.0,29.84,SSW,201,6.0,12.0,77,0.00,,,0.42,,2013-05-29 01:42:00,
2013-05-28 21:52:00,76.0,69.0,29.84,SSW,194,8.0,12.0,78,0.00,,,0.42,,2013-05-29 01:52:00,
2013-05-28 22:02:00,76.0,69.0,29.83,South,180,6.0,12.0,79,0.00,,,0.42,,2013-05-29 02:02:00,
2013-05-28 22:12:00,76.0,69.0,29.83,South,180,6.0,12.0,79,0.00,,,0.42,,2013-05-29 02:12:00,
2013-05-28 22:21:00,75.0,68.0,29.83,South,180,8.0,14.0,79,0.00,,,0.26,,2013-05-29 02:21:00,
2013-05-28 22:32:00,75.0,68.0,29.85,SSW,208,8.0,12.0,79,0.00,,,0.26,,2013-05-29 02:32:00,
2013-05-28 22:42:00,75.0,68.0,29.86,SSW,201,7.0,16.0,78,0.00,,,0.26,,2013-05-29 02:42:00,
2013-05-28 22:52:00,75.0,68.0,29.86,SSW,201,7.0,16.0,78,0.00,,,0.26,,2013-05-29 02:52:00,
2013-05-28 23:02:00,75.0,68.0,29.85,South,182,10.0,16.0,78,0.00,,,0.26,,2013-05-29 03:02:00,
2013-05-28 23:12:00,75.0,68.0,29.85,South,182,10.0,16.0,78,0.00,,,0.26,,2013-05-29 03:12:00,
2013-05-28 23:22:00,75.0,68.0,29.86,South,182,12.0,17.0,78,0.00,,,0.24,,2013-05-29 03:22:00,
2013-05-28 23:33:00,75.0,67.0,29.87,SSW,194,9.0,21.0,77,0.00,,,0.24,,2013-05-29 03:33:00,
2013-05-28 23:43:00,75.0,67.0,29.87,SSW,194,9.0,21.0,77,0.00,,,0.24,,2013-05-29 03:43:00,
2013-05-28 23:53:00,75.0,67.0,29.87,South,190,8.0,23.0,76,0.00,,,0.24,,2013-05-29 03:53:00,